contact:dominique.lefevre@mio.osupytheas.fr, maurice.libes@osupytheas.fr, didier.mallarino@osupytheas.fr
Project:EMSO http://www.emso-fr.org/EMSO-France
Depth: 2436.0 m
Title:EMSO Ligure Ouest : Data MII capteur AQUADOPP
Date,Latitude,Longitude,X_East,Y_North,Z_Up,Amplitude_X,Amplitude_Y,Amplitude_Z,Batterie,SoundSpeed,Heading,Pitch,Roll,Pressure,TIS,Speed,Direction
, degrees North, degrees East, m.s-1, m.s-1,m.s-1, 1, 1, 1, Volt, m.s-1, degree, degree, degree, dbar, degree_C, m.s-1, degree
2019-12-04T00:04:03,42.805,6.029,-0.034,0.034,-0.044,100.0,108.0,99.0,13.4,1505.3,327.7,-0.7,1.8,2470.253,13.31,0.048,315.0
2019-12-04T00:07:03,42.805,6.029,-0.061,0.019,-0.019,101.0,109.0,99.0,13.4,1505.3,325.6,-0.7,1.8,2470.289,13.32,0.063,287.3
2019-12-04T00:10:03,42.805,6.029,-0.011,0.035,0.021,101.0,109.0,99.0,13.4,1505.3,328.1,-0.7,1.8,2470.239,13.32,0.036,342.6
2019-12-04T00:13:03,42.805,6.029,-0.008,0.011,-0.035,101.0,108.0,98.0,13.4,1505.3,324.0,-0.7,1.8,2470.252,13.32,0.013,324.0
2019-12-04T00:16:03,42.805,6.029,-0.033,0.01,-0.006,101.0,109.0,100.0,13.4,1505.3,326.8,-0.7,1.8,2470.254,13.33,0.034,286.9
2019-12-04T00:19:03,42.805,6.029,-0.045,0.022,-0.034,102.0,110.0,98.0,13.4,1505.3,326.3,-0.7,1.8,2470.27,13.33,0.05,296.1
2019-12-04T00:22:03,42.805,6.029,-0.029,0.027,-0.039,100.0,110.0,99.0,13.3,1505.3,326.7,-0.7,1.8,2470.213,13.33,0.039,313.0
2019-12-04T00:25:03,42.805,6.029,-0.03,0.024,0.022,101.0,109.0,99.0,13.4,1505.3,323.9,-0.7,1.9,2470.278,13.33,0.038,308.7
2019-12-04T00:28:03,42.805,6.029,-0.031,0.029,0.027,102.0,110.0,99.0,13.4,1505.3,325.0,-0.7,1.8,2470.201,13.33,0.042,313.1
2019-12-04T00:31:03,42.805,6.029,-0.018,0.004,0.007,102.0,109.0,100.0,13.3,1505.3,324.5,-0.7,1.8,2470.244,13.33,0.018,282.5
2019-12-04T00:34:03,42.805,6.029,-0.022,0.028,-0.032,102.0,110.0,100.0,13.4,1505.3,324.5,-0.7,1.8,2470.222,13.33,0.035,321.8
2019-12-04T00:37:03,42.805,6.029,0.004,0.006,-0.014,104.0,106.0,100.0,13.3,1505.3,328.2,-0.7,1.9,2470.205,13.33,0.007,33.7
2019-12-04T00:40:03,42.805,6.029,-0.023,0.001,-0.022,102.0,107.0,101.0,13.4,1505.3,324.8,-0.7,1.8,2470.227,13.33,0.023,272.5
2019-12-04T00:43:03,42.805,6.029,-0.016,0.012,-0.041,102.0,109.0,100.0,13.3,1505.3,326.6,-0.7,1.8,2470.191,13.33,0.02,306.9
2019-12-04T00:46:03,42.805,6.029,-0.029,0.016,0.016,103.0,109.0,100.0,13.3,1505.3,324.7,-0.7,1.8,2470.248,13.33,0.033,298.9
2019-12-04T00:49:03,42.805,6.029,-0.035,0.03,-0.013,101.0,108.0,100.0,13.4,1505.3,326.2,-0.7,1.8,2470.257,13.33,0.046,310.6
2019-12-04T00:52:03,42.805,6.029,-0.023,0.034,0.005,102.0,110.0,99.0,13.3,1505.3,326.3,-0.7,1.8,2470.213,13.33,0.041,325.9
2019-12-04T00:55:03,42.805,6.029,-0.04,0.026,-0.014,102.0,107.0,99.0,13.3,1505.3,327.8,-0.7,1.9,2470.183,13.33,0.047,303.0
2019-12-04T00:58:03,42.805,6.029,-0.042,0.015,-0.018,102.0,109.0,100.0,13.4,1505.3,326.9,-0.7,1.8,2470.222,13.33,0.044,289.6
2019-12-04T01:04:03,42.805,6.029,-0.018,0.021,0.0,102.0,109.0,101.0,13.3,1505.3,327.0,-0.7,1.9,2470.278,13.31,0.027,319.4
2019-12-04T01:07:03,42.805,6.029,-0.013,0.02,0.003,102.0,106.0,99.0,13.3,1505.3,326.9,-0.7,1.8,2470.247,13.32,0.023,327.0
2019-12-04T01:10:03,42.805,6.029,-0.037,0.036,-0.018,101.0,109.0,98.0,13.4,1505.3,325.1,-0.7,1.9,2470.258,13.32,0.051,314.2
2019-12-04T01:13:03,42.805,6.029,-0.034,0.026,0.007,100.0,107.0,100.0,13.4,1505.3,327.5,-0.7,1.8,2470.276,13.32,0.042,307.4
2019-12-04T01:16:03,42.805,6.029,-0.03,0.023,-0.006,101.0,107.0,100.0,13.4,1505.3,327.2,-0.7,1.8,2470.254,13.32,0.037,307.5
2019-12-04T01:19:03,42.805,6.029,-0.023,-0.004,-0.011,102.0,107.0,100.0,13.4,1505.3,327.1,-0.7,1.8,2470.251,13.33,0.023,260.1
2019-12-04T01:22:03,42.805,6.029,-0.014,0.016,-0.019,103.0,107.0,100.0,13.4,1505.3,327.3,-0.7,1.8,2470.238,13.33,0.021,318.8
2019-12-04T01:25:03,42.805,6.029,-0.034,0.028,-0.032,102.0,109.0,98.0,13.3,1505.3,327.3,-0.7,1.8,2470.235,13.33,0.044,309.5
2019-12-04T01:28:03,42.805,6.029,-0.052,0.006,-0.047,102.0,108.0,99.0,13.3,1505.3,323.9,-0.7,1.8,2470.186,13.33,0.052,276.6
2019-12-04T01:31:03,42.805,6.029,0.007,0.0,-0.037,102.0,106.0,100.0,13.3,1505.3,324.4,-0.7,1.8,2470.237,13.33,0.007,90.0
2019-12-04T01:34:03,42.805,6.029,-0.055,0.035,-0.026,101.0,108.0,100.0,13.4,1505.3,326.9,-0.7,1.8,2470.22,13.33,0.065,302.5
2019-12-04T01:37:03,42.805,6.029,-0.041,0.035,-0.003,102.0,109.0,100.0,13.4,1505.3,325.7,-0.7,1.8,2470.176,13.33,0.053,310.5
2019-12-04T01:40:03,42.805,6.029,-0.045,0.013,-0.034,102.0,108.0,100.0,13.3,1505.3,326.5,-0.8,1.8,2470.175,13.33,0.046,286.1
2019-12-04T01:43:03,42.805,6.029,-0.019,0.021,-0.029,102.0,107.0,100.0,13.3,1505.3,325.8,-0.7,1.8,2470.231,13.33,0.028,317.9
2019-12-04T01:46:03,42.805,6.029,-0.036,0.01,0.002,103.0,109.0,99.0,13.3,1505.3,323.2,-0.7,1.8,2470.223,13.33,0.037,285.5
2019-12-04T01:49:03,42.805,6.029,-0.037,0.026,-0.03,102.0,107.0,99.0,13.4,1505.3,325.2,-0.7,1.8,2470.244,13.33,0.045,305.1
2019-12-04T01:52:03,42.805,6.029,-0.034,0.027,-0.029,101.0,108.0,99.0,13.3,1505.3,323.3,-0.7,1.8,2470.236,13.33,0.043,308.5
2019-12-04T01:55:03,42.805,6.029,-0.033,0.021,-0.024,105.0,108.0,99.0,13.3,1505.3,325.2,-0.7,1.8,2470.233,13.33,0.039,302.5
2019-12-04T01:58:03,42.805,6.029,-0.034,0.002,-0.007,103.0,107.0,100.0,13.4,1505.3,324.1,-0.7,1.8,2470.216,13.33,0.034,273.4
2019-12-04T02:04:03,42.805,6.029,-0.022,0.036,0.007,101.0,109.0,100.0,13.4,1505.3,323.9,-0.7,1.8,2470.232,13.31,0.042,328.6
2019-12-04T02:07:03,42.805,6.029,0.003,0.027,-0.014,103.0,109.0,100.0,13.4,1505.3,327.2,-0.7,1.8,2470.22,13.32,0.027,6.3
2019-12-04T02:10:03,42.805,6.029,-0.001,0.028,0.02,101.0,110.0,100.0,13.4,1505.3,326.0,-0.7,1.8,2470.231,13.32,0.028,358.0
2019-12-04T02:13:03,42.805,6.029,-0.031,0.034,-0.014,102.0,109.0,100.0,13.3,1505.3,326.3,-0.7,1.8,2470.219,13.32,0.046,317.6
2019-12-04T02:16:03,42.805,6.029,-0.033,0.004,-0.01,101.0,109.0,101.0,13.3,1505.3,323.2,-0.7,1.9,2470.261,13.33,0.033,276.9
2019-12-04T02:19:03,42.805,6.029,-0.048,0.027,-0.013,103.0,109.0,98.0,13.4,1505.3,324.1,-0.7,1.8,2470.22,13.33,0.055,299.4
2019-12-04T02:22:03,42.805,6.029,-0.01,0.019,0.007,103.0,108.0,99.0,13.4,1505.3,324.8,-0.7,1.8,2470.21,13.33,0.021,332.2
2019-12-04T02:25:03,42.805,6.029,-0.056,0.006,-0.052,102.0,109.0,99.0,13.4,1505.3,324.9,-0.7,1.9,2470.234,13.33,0.056,276.1
2019-12-04T02:28:03,42.805,6.029,-0.031,-0.004,-0.03,102.0,109.0,101.0,13.4,1505.3,326.3,-0.7,1.8,2470.212,13.33,0.031,262.7
2019-12-04T02:31:03,42.805,6.029,-0.029,0.034,-0.002,102.0,110.0,101.0,13.4,1505.3,323.2,-0.7,1.8,2470.215,13.33,0.044,319.5
2019-12-04T02:34:03,42.805,6.029,-0.038,0.023,-0.07,102.0,110.0,100.0,13.3,1505.3,326.8,-0.7,1.8,2470.198,13.33,0.044,301.2
2019-12-04T02:37:03,42.805,6.029,-0.051,0.023,-0.03,104.0,110.0,100.0,13.4,1505.3,326.6,-0.7,1.9,2470.253,13.33,0.055,294.3
2019-12-04T02:40:03,42.805,6.029,-0.042,0.028,-0.01,103.0,109.0,100.0,13.3,1505.3,328.4,-0.7,1.8,2470.214,13.33,0.05,303.7
2019-12-04T02:43:03,42.805,6.029,-0.046,0.015,-0.004,103.0,109.0,100.0,13.4,1505.3,323.7,-0.7,1.8,2470.211,13.33,0.048,288.1
2019-12-04T02:46:03,42.805,6.029,-0.028,0.048,0.0,102.0,109.0,100.0,13.4,1505.3,326.3,-0.7,1.8,2470.177,13.33,0.055,329.7
2019-12-04T02:49:03,42.805,6.029,-0.036,0.028,-0.019,103.0,110.0,100.0,13.4,1505.3,324.1,-0.7,1.9,2470.221,13.33,0.045,307.9
2019-12-04T02:52:03,42.805,6.029,-0.035,0.014,0.002,105.0,109.0,100.0,13.4,1505.3,324.5,-0.7,1.8,2470.186,13.33,0.037,291.8
2019-12-04T02:55:02,42.805,6.029,-0.029,0.001,0.017,104.0,109.0,100.0,13.4,1505.3,326.0,-0.7,1.8,2470.209,13.33,0.029,272.0
2019-12-04T02:58:03,42.805,6.029,-0.063,-0.002,-0.058,101.0,110.0,100.0,13.3,1505.3,324.4,-0.7,1.8,2470.207,13.33,0.063,268.2
2019-12-04T03:04:03,42.805,6.029,-0.039,0.027,-0.02,104.0,108.0,101.0,13.3,1505.3,326.3,-0.8,1.8,2470.224,13.31,0.047,304.7
2019-12-04T03:07:03,42.805,6.029,-0.023,0.039,0.01,103.0,110.0,101.0,13.4,1505.3,326.8,-0.7,1.8,2470.226,13.31,0.045,329.5
2019-12-04T03:10:03,42.805,6.029,-0.004,0.036,-0.016,103.0,110.0,99.0,13.4,1505.3,327.1,-0.7,1.9,2470.207,13.32,0.036,353.7
2019-12-04T03:13:03,42.805,6.029,-0.026,0.015,-0.009,103.0,110.0,100.0,13.3,1505.3,325.1,-0.7,1.8,2470.202,13.32,0.03,300.0
2019-12-04T03:16:03,42.805,6.029,-0.044,0.013,-0.01,102.0,109.0,101.0,13.4,1505.3,327.7,-0.7,1.8,2470.187,13.32,0.045,286.5
2019-12-04T03:19:02,42.805,6.029,-0.029,0.02,0.0,103.0,111.0,101.0,13.4,1505.3,326.9,-0.7,1.9,2470.229,13.33,0.035,304.6
2019-12-04T03:22:02,42.805,6.029,-0.03,0.007,-0.005,102.0,110.0,99.0,13.3,1505.3,327.6,-0.7,1.8,2470.215,13.33,0.03,283.1
2019-12-04T03:25:02,42.805,6.029,-0.054,0.028,-0.027,103.0,108.0,100.0,13.4,1505.3,324.0,-0.7,1.8,2470.183,13.33,0.06,297.4
2019-12-04T03:28:03,42.805,6.029,-0.058,0.021,-0.019,101.0,111.0,100.0,13.4,1505.3,325.2,-0.7,1.8,2470.234,13.33,0.061,289.9
2019-12-04T03:31:02,42.805,6.029,-0.027,0.015,-0.022,103.0,110.0,100.0,13.4,1505.3,325.1,-0.7,1.8,2470.186,13.33,0.03,299.1
2019-12-04T03:34:02,42.805,6.029,-0.03,0.037,0.018,103.0,109.0,100.0,13.4,1505.3,323.2,-0.8,1.8,2470.205,13.33,0.047,321.0
2019-12-04T03:37:03,42.805,6.029,-0.027,0.026,-0.031,102.0,111.0,100.0,13.3,1505.3,326.8,-0.7,1.8,2470.23,13.33,0.037,313.9
2019-12-04T03:40:02,42.805,6.029,-0.06,0.017,-0.011,102.0,110.0,101.0,13.4,1505.3,327.3,-0.7,1.8,2470.197,13.33,0.062,285.8
2019-12-04T03:43:03,42.805,6.029,-0.045,0.019,-0.035,104.0,109.0,100.0,13.4,1505.3,323.3,-0.7,1.8,2470.187,13.33,0.048,292.9
2019-12-04T03:46:02,42.805,6.029,-0.018,0.016,-0.022,102.0,109.0,100.0,13.3,1505.3,324.2,-0.7,1.8,2470.202,13.33,0.024,311.6
2019-12-04T03:49:02,42.805,6.029,-0.025,0.025,-0.019,101.0,111.0,99.0,13.3,1505.3,323.5,-0.7,1.8,2470.201,13.33,0.035,315.0
2019-12-04T03:52:02,42.805,6.029,0.005,0.041,0.032,103.0,109.0,99.0,13.4,1505.3,326.0,-0.7,1.8,2470.202,13.33,0.041,7.0
2019-12-04T03:55:02,42.805,6.029,-0.007,0.031,0.011,100.0,111.0,99.0,13.4,1505.3,327.5,-0.7,1.8,2470.205,13.33,0.031,347.3
2019-12-04T03:58:02,42.805,6.029,-0.04,-0.002,-0.023,102.0,108.0,98.0,13.3,1505.3,323.5,-0.7,1.8,2470.187,13.33,0.04,267.1
2019-12-04T04:04:02,42.805,6.029,-0.044,0.022,-0.062,103.0,109.0,99.0,13.4,1505.3,324.5,-0.7,1.8,2470.246,13.31,0.049,296.6
2019-12-04T04:07:02,42.805,6.029,-0.012,0.03,0.024,103.0,108.0,99.0,13.4,1505.3,324.6,-0.7,1.8,2470.204,13.32,0.032,338.2
2019-12-04T04:10:02,42.805,6.029,-0.039,0.013,0.0,100.0,109.0,99.0,13.4,1505.3,325.6,-0.7,1.8,2470.183,13.32,0.041,288.4
2019-12-04T04:13:02,42.805,6.029,-0.025,0.021,-0.019,101.0,108.0,98.0,13.3,1505.3,326.5,-0.7,1.8,2470.207,13.32,0.032,310.0
2019-12-04T04:16:02,42.805,6.029,-0.043,0.009,-0.008,102.0,108.0,99.0,13.3,1505.3,327.2,-0.7,1.8,2470.208,13.33,0.043,281.8
2019-12-04T04:19:02,42.805,6.029,-0.024,0.0,-0.012,101.0,110.0,99.0,13.4,1505.3,325.2,-0.8,1.8,2470.218,13.33,0.024,270.0
2019-12-04T04:22:02,42.805,6.029,-0.014,0.017,-0.013,102.0,109.0,99.0,13.3,1505.3,324.4,-0.7,1.8,2470.218,13.33,0.022,320.5
2019-12-04T04:25:02,42.805,6.029,-0.041,0.03,-0.014,103.0,108.0,99.0,13.4,1505.3,327.0,-0.7,1.8,2470.181,13.33,0.05,306.2
2019-12-04T04:28:02,42.805,6.029,-0.043,0.011,-0.039,100.0,108.0,99.0,13.4,1505.3,327.3,-0.7,1.8,2470.201,13.33,0.044,284.3
2019-12-04T04:31:02,42.805,6.029,0.009,0.025,0.002,103.0,110.0,98.0,13.3,1505.3,325.5,-0.7,1.8,2470.199,13.33,0.026,19.8
2019-12-04T04:34:02,42.805,6.029,-0.02,0.015,-0.001,101.0,110.0,99.0,13.4,1505.3,325.5,-0.7,1.8,2470.188,13.33,0.025,306.9
2019-12-04T04:37:02,42.805,6.029,-0.038,0.038,-0.019,101.0,109.0,100.0,13.4,1505.3,327.1,-0.7,1.8,2470.206,13.33,0.053,315.0
2019-12-04T04:40:02,42.805,6.029,0.0,0.032,0.014,101.0,108.0,99.0,13.3,1505.3,324.0,-0.7,1.8,2470.145,13.33,0.032,0.0
2019-12-04T04:43:02,42.805,6.029,-0.018,0.02,-0.003,101.0,107.0,99.0,13.4,1505.3,325.3,-0.7,1.8,2470.182,13.33,0.026,318.0
2019-12-04T04:46:02,42.805,6.029,-0.015,0.011,-0.015,101.0,110.0,99.0,13.4,1505.3,325.0,-0.7,1.8,2470.191,13.33,0.018,306.3
2019-12-04T04:49:02,42.805,6.029,-0.029,0.029,0.011,101.0,109.0,99.0,13.4,1505.3,324.8,-0.7,1.9,2470.188,13.33,0.041,315.0
2019-12-04T04:52:02,42.805,6.029,-0.019,0.025,-0.005,103.0,109.0,97.0,13.4,1505.3,327.2,-0.7,1.8,2470.195,13.33,0.031,322.8
2019-12-04T04:55:02,42.805,6.029,-0.018,0.04,0.004,100.0,110.0,98.0,13.4,1505.3,326.1,-0.7,1.8,2470.175,13.33,0.043,335.8
2019-12-04T04:58:02,42.805,6.029,-0.007,0.026,-0.008,101.0,110.0,98.0,13.4,1505.3,323.8,-0.7,1.8,2470.137,13.33,0.026,344.9
2019-12-04T05:04:02,42.805,6.029,-0.03,0.027,0.006,101.0,109.0,99.0,13.4,1505.3,323.5,-0.7,1.8,2470.198,13.31,0.04,312.0
2019-12-04T05:07:02,42.805,6.029,-0.041,0.034,-0.007,98.0,108.0,98.0,13.3,1505.3,325.1,-0.7,1.8,2470.211,13.32,0.053,309.7
2019-12-04T05:10:02,42.805,6.029,-0.015,0.033,-0.001,99.0,106.0,99.0,13.4,1505.3,323.9,-0.7,1.8,2470.166,13.32,0.036,335.6
2019-12-04T05:13:02,42.805,6.029,-0.016,0.009,0.0,100.0,107.0,98.0,13.4,1505.3,327.4,-0.7,1.8,2470.202,13.33,0.018,299.4
2019-12-04T05:16:02,42.805,6.029,-0.014,0.026,0.018,100.0,110.0,98.0,13.4,1505.3,324.9,-0.7,1.8,2470.205,13.33,0.029,331.7
2019-12-04T05:19:02,42.805,6.029,-0.054,0.046,-0.057,99.0,110.0,98.0,13.4,1505.3,324.8,-0.7,1.8,2470.181,13.33,0.07,310.4
2019-12-04T05:22:02,42.805,6.029,-0.01,0.027,-0.031,100.0,109.0,98.0,13.3,1505.3,328.4,-0.7,1.8,2470.178,13.33,0.028,339.7
2019-12-04T05:25:02,42.805,6.029,-0.015,0.015,0.02,100.0,109.0,99.0,13.4,1505.3,323.8,-0.7,1.8,2470.188,13.33,0.021,315.0
2019-12-04T05:28:02,42.805,6.029,-0.015,0.024,-0.016,99.0,110.0,97.0,13.4,1505.3,323.8,-0.7,1.8,2470.203,13.33,0.028,328.0
2019-12-04T05:31:02,42.805,6.029,-0.051,0.011,-0.028,99.0,110.0,99.0,13.4,1505.3,326.6,-0.8,1.8,2470.202,13.33,0.052,282.2
2019-12-04T05:34:02,42.805,6.029,-0.042,0.019,0.003,99.0,108.0,99.0,13.4,1505.3,325.2,-0.7,1.8,2470.216,13.33,0.046,294.3
2019-12-04T05:37:02,42.805,6.029,-0.058,0.003,-0.038,99.0,107.0,98.0,13.4,1505.3,326.0,-0.7,1.8,2470.198,13.33,0.058,273.0
2019-12-04T05:40:02,42.805,6.029,-0.015,0.032,0.014,100.0,109.0,98.0,13.4,1505.3,325.6,-0.7,1.9,2470.184,13.33,0.035,334.9
2019-12-04T05:43:02,42.805,6.029,-0.032,0.003,-0.055,100.0,108.0,98.0,13.4,1505.3,325.7,-0.7,1.8,2470.213,13.33,0.032,275.4
2019-12-04T05:46:02,42.805,6.029,0.011,0.04,0.03,100.0,108.0,98.0,13.3,1505.3,326.0,-0.7,1.8,2470.209,13.33,0.041,15.4
2019-12-04T05:49:02,42.805,6.029,-0.026,0.025,0.01,100.0,107.0,97.0,13.4,1505.3,326.6,-0.7,1.8,2470.188,13.33,0.036,313.9
2019-12-04T05:52:02,42.805,6.029,-0.015,0.032,0.001,98.0,106.0,98.0,13.3,1505.3,327.8,-0.7,1.8,2470.202,13.33,0.035,334.9
2019-12-04T05:55:02,42.805,6.029,-0.024,0.033,-0.016,99.0,107.0,97.0,13.4,1505.3,324.9,-0.7,1.8,2470.177,13.33,0.04,324.0
2019-12-04T05:58:02,42.805,6.029,-0.031,0.021,-0.005,100.0,107.0,98.0,13.4,1505.3,324.6,-0.7,1.9,2470.179,13.33,0.037,304.1
2019-12-04T06:04:02,42.805,6.029,0.0,0.018,-0.01,100.0,108.0,97.0,13.4,1505.3,326.6,-0.8,1.8,2470.215,13.31,0.018,0.0
2019-12-04T06:07:02,42.805,6.029,-0.004,0.04,0.021,99.0,106.0,98.0,13.4,1505.3,326.1,-0.7,1.8,2470.255,13.32,0.04,354.3
2019-12-04T06:10:02,42.805,6.029,-0.005,0.049,0.015,99.0,108.0,98.0,13.3,1505.3,325.1,-0.7,1.8,2470.235,13.32,0.049,354.2
2019-12-04T06:13:02,42.805,6.029,-0.005,0.036,0.011,99.0,106.0,97.0,13.4,1505.3,328.4,-0.7,1.9,2470.224,13.32,0.036,352.1
2019-12-04T06:16:02,42.805,6.029,-0.011,0.01,0.02,99.0,107.0,98.0,13.4,1505.3,325.2,-0.7,1.9,2470.206,13.33,0.014,312.3
2019-12-04T06:19:02,42.805,6.029,-0.05,0.009,-0.024,99.0,108.0,98.0,13.3,1505.3,328.6,-0.7,1.9,2470.205,13.33,0.05,280.2
2019-12-04T06:22:02,42.805,6.029,0.011,0.001,-0.028,99.0,106.0,98.0,13.4,1505.3,324.7,-0.7,1.8,2470.19,13.33,0.011,84.8
2019-12-04T06:25:02,42.805,6.029,0.015,0.016,0.03,99.0,108.0,98.0,13.4,1505.3,324.3,-0.7,1.8,2470.229,13.33,0.021,43.1
2019-12-04T06:28:02,42.805,6.029,-0.004,0.028,0.009,103.0,106.0,98.0,13.3,1505.3,326.8,-0.7,1.8,2470.224,13.33,0.028,351.9
2019-12-04T06:31:02,42.805,6.029,0.029,0.023,0.016,99.0,107.0,98.0,13.4,1505.3,328.2,-0.7,1.8,2470.184,13.33,0.037,51.6
2019-12-04T06:34:02,42.805,6.029,0.005,0.033,0.035,99.0,108.0,98.0,13.4,1505.3,328.6,-0.7,1.9,2470.181,13.33,0.033,8.6
2019-12-04T06:37:02,42.805,6.029,-0.016,0.027,-0.021,100.0,107.0,97.0,13.4,1505.3,328.3,-0.7,1.9,2470.214,13.33,0.031,329.3
2019-12-04T06:40:02,42.805,6.029,-0.061,0.034,-0.038,98.0,105.0,98.0,13.3,1505.3,325.1,-0.7,1.8,2470.182,13.33,0.069,299.1
2019-12-04T06:43:02,42.805,6.029,-0.018,0.026,0.016,100.0,106.0,99.0,13.4,1505.3,323.6,-0.7,1.8,2470.216,13.33,0.031,325.3
2019-12-04T06:46:02,42.805,6.029,-0.02,0.0,-0.018,98.0,105.0,97.0,13.3,1505.3,324.6,-0.7,1.8,2470.215,13.33,0.02,270.0
2019-12-04T06:49:02,42.805,6.029,-0.028,0.044,0.025,100.0,107.0,99.0,13.4,1505.3,323.5,-0.7,1.8,2470.156,13.33,0.052,327.5
2019-12-04T06:52:02,42.805,6.029,-0.037,0.012,-0.057,99.0,105.0,99.0,13.3,1505.3,324.5,-0.7,1.8,2470.186,13.33,0.038,288.0
2019-12-04T06:55:02,42.805,6.029,-0.031,0.012,-0.015,100.0,106.0,97.0,13.4,1505.3,323.3,-0.7,1.8,2470.221,13.33,0.033,291.2
2019-12-04T06:58:02,42.805,6.029,0.0,0.035,0.014,98.0,106.0,98.0,13.3,1505.3,326.8,-0.7,1.8,2470.174,13.33,0.035,0.0
2019-12-04T07:04:02,42.805,6.029,-0.004,0.04,-0.003,99.0,105.0,98.0,13.4,1505.3,326.6,-0.8,1.9,2470.254,13.31,0.04,354.3
2019-12-04T07:07:02,42.805,6.029,-0.004,0.02,-0.01,98.0,106.0,98.0,13.4,1505.3,327.9,-0.7,1.8,2470.243,13.32,0.02,348.7
2019-12-04T07:10:02,42.805,6.029,0.01,0.039,0.021,99.0,105.0,97.0,13.3,1505.3,325.1,-0.7,1.8,2470.184,13.32,0.04,14.4
2019-12-04T07:13:02,42.805,6.029,0.015,0.022,0.015,99.0,104.0,99.0,13.4,1505.3,324.6,-0.7,1.8,2470.205,13.33,0.026,34.3
2019-12-04T07:16:02,42.805,6.029,-0.009,0.022,-0.031,100.0,104.0,97.0,13.4,1505.3,325.1,-0.7,1.9,2470.185,13.33,0.023,337.8
2019-12-04T07:19:02,42.805,6.029,0.009,0.036,0.003,99.0,107.0,97.0,13.4,1505.3,325.3,-0.7,1.8,2470.2,13.33,0.037,14.0
2019-12-04T07:22:02,42.805,6.029,-0.027,0.009,-0.009,99.0,105.0,98.0,13.4,1505.3,326.0,-0.7,1.9,2470.218,13.33,0.028,288.4
2019-12-04T07:25:02,42.805,6.029,0.007,0.013,0.018,101.0,105.0,98.0,13.4,1505.3,323.0,-0.7,1.8,2470.185,13.33,0.014,28.3
2019-12-04T07:28:02,42.805,6.029,-0.009,0.024,-0.009,100.0,106.0,97.0,13.3,1505.3,323.2,-0.7,1.8,2470.187,13.33,0.025,339.4
2019-12-04T07:31:02,42.805,6.029,-0.027,-0.003,-0.056,99.0,105.0,98.0,13.3,1505.3,327.4,-0.7,1.8,2470.215,13.33,0.027,263.7
2019-12-04T07:34:02,42.805,6.029,-0.005,0.046,0.01,99.0,105.0,98.0,13.3,1505.3,327.1,-0.7,1.8,2470.217,13.33,0.046,353.8
2019-12-04T07:37:02,42.805,6.029,-0.032,0.005,-0.018,99.0,106.0,97.0,13.3,1505.3,324.6,-0.7,1.8,2470.19,13.33,0.032,278.9
2019-12-04T07:40:02,42.805,6.029,-0.009,0.02,-0.027,99.0,106.0,98.0,13.4,1505.3,326.3,-0.7,1.8,2470.241,13.33,0.021,335.8
2019-12-04T07:43:02,42.805,6.029,-0.007,0.011,0.004,99.0,105.0,99.0,13.4,1505.3,325.4,-0.7,1.8,2470.173,13.33,0.013,327.5
2019-12-04T07:46:02,42.805,6.029,-0.005,0.037,0.013,100.0,106.0,98.0,13.3,1505.3,327.5,-0.8,1.9,2470.245,13.33,0.037,352.3
2019-12-04T07:49:02,42.805,6.029,-0.028,0.019,-0.012,100.0,105.0,98.0,13.4,1505.3,325.7,-0.7,1.8,2470.209,13.33,0.033,304.2
2019-12-04T07:52:02,42.805,6.029,-0.012,0.022,-0.035,99.0,105.0,100.0,13.4,1505.3,327.5,-0.7,1.9,2470.199,13.33,0.025,331.4
2019-12-04T07:55:03,42.805,6.029,0.012,0.027,-0.007,100.0,106.0,98.0,13.4,1505.3,326.2,-0.7,1.8,2470.193,13.33,0.029,24.0
2019-12-04T07:58:02,42.805,6.029,-0.008,0.031,0.017,100.0,104.0,99.0,13.4,1505.3,327.2,-0.7,1.8,2470.227,13.33,0.032,345.5
2019-12-04T08:04:02,42.805,6.029,-0.011,0.006,-0.057,100.0,106.0,99.0,13.4,1505.3,328.1,-0.7,1.8,2470.261,13.31,0.012,298.6
2019-12-04T08:07:02,42.805,6.029,-0.008,0.011,-0.009,100.0,107.0,98.0,13.3,1505.3,324.9,-0.7,1.9,2470.256,13.32,0.013,324.0
2019-12-04T08:10:02,42.805,6.029,-0.059,0.043,-0.022,101.0,105.0,99.0,13.3,1505.3,328.8,-0.7,1.8,2470.211,13.32,0.073,306.1
2019-12-04T08:13:02,42.805,6.029,-0.028,0.026,-0.028,100.0,105.0,98.0,13.3,1505.3,324.6,-0.7,1.8,2470.261,13.33,0.038,312.9
2019-12-04T08:16:02,42.805,6.029,-0.006,0.007,-0.002,101.0,106.0,99.0,13.4,1505.3,326.6,-0.7,1.8,2470.243,13.33,0.009,319.4
2019-12-04T08:19:03,42.805,6.029,-0.01,0.013,-0.015,101.0,105.0,99.0,13.4,1505.3,327.4,-0.8,1.8,2470.223,13.33,0.016,322.4
2019-12-04T08:22:02,42.805,6.029,-0.01,-0.003,-0.034,100.0,106.0,99.0,13.4,1505.3,323.0,-0.7,1.8,2470.227,13.33,0.01,253.3
2019-12-04T08:25:03,42.805,6.029,0.002,0.0,-0.047,100.0,106.0,98.0,13.4,1505.3,326.2,-0.7,1.9,2470.239,13.33,0.002,90.0
2019-12-04T08:28:03,42.805,6.029,-0.033,0.021,-0.014,101.0,107.0,97.0,13.3,1505.3,325.5,-0.7,1.8,2470.237,13.33,0.039,302.5
2019-12-04T08:31:02,42.805,6.029,-0.001,0.023,-0.009,99.0,107.0,98.0,13.4,1505.3,323.5,-0.7,1.8,2470.253,13.33,0.023,357.5
2019-12-04T08:34:02,42.805,6.029,-0.046,-0.004,-0.04,101.0,106.0,99.0,13.4,1505.3,326.9,-0.7,1.8,2470.238,13.33,0.046,265.0
2019-12-04T08:37:02,42.805,6.029,-0.022,0.012,-0.009,101.0,107.0,101.0,13.3,1505.3,326.5,-0.7,1.8,2470.24,13.33,0.025,298.6
2019-12-04T08:40:03,42.805,6.029,-0.015,0.036,-0.001,101.0,105.0,98.0,13.4,1505.3,328.3,-0.7,1.8,2470.244,13.33,0.039,337.4
2019-12-04T08:43:03,42.805,6.029,-0.041,0.007,-0.039,102.0,106.0,99.0,13.4,1505.3,323.6,-0.8,1.9,2470.252,13.33,0.041,279.7
2019-12-04T08:46:02,42.805,6.029,-0.021,0.006,-0.062,100.0,106.0,99.0,13.4,1505.3,326.6,-0.7,1.8,2470.268,13.33,0.021,285.9
2019-12-04T08:49:03,42.805,6.029,-0.02,0.026,0.005,101.0,107.0,98.0,13.4,1505.3,326.8,-0.7,1.8,2470.232,13.33,0.032,322.4
2019-12-04T08:52:02,42.805,6.029,-0.044,0.014,-0.02,101.0,105.0,98.0,13.4,1505.3,325.6,-0.7,1.8,2470.236,13.33,0.046,287.6
2019-12-04T08:55:03,42.805,6.029,-0.034,0.019,-0.01,100.0,106.0,98.0,13.4,1505.3,328.6,-0.7,1.8,2470.233,13.33,0.038,299.2
2019-12-04T08:58:02,42.805,6.029,-0.054,-0.001,-0.07,101.0,106.0,98.0,13.3,1505.3,326.4,-0.7,1.8,2470.279,13.33,0.054,268.9
2019-12-04T09:04:02,42.805,6.029,-0.013,0.021,-0.003,100.0,107.0,99.0,13.4,1505.3,325.3,-0.8,1.8,2470.279,13.31,0.024,328.2
2019-12-04T09:07:02,42.805,6.029,-0.045,0.021,-0.008,101.0,106.0,99.0,13.4,1505.3,326.9,-0.7,1.8,2470.286,13.32,0.049,295.0
2019-12-04T09:10:03,42.805,6.029,-0.048,0.028,-0.05,100.0,105.0,99.0,13.4,1505.3,327.5,-0.7,1.8,2470.269,13.32,0.055,300.3
2019-12-04T09:13:02,42.805,6.029,-0.01,0.015,-0.025,100.0,106.0,100.0,13.4,1505.3,323.6,-0.7,1.9,2470.29,13.32,0.018,326.3
2019-12-04T09:16:03,42.805,6.029,-0.037,0.016,0.008,102.0,107.0,100.0,13.4,1505.3,327.2,-0.7,1.8,2470.296,13.33,0.04,293.4
2019-12-04T09:19:03,42.805,6.029,-0.043,0.008,-0.01,100.0,107.0,99.0,13.4,1505.3,324.3,-0.7,1.8,2470.275,13.33,0.043,280.5
2019-12-04T09:22:02,42.805,6.029,-0.042,0.017,0.0,100.0,107.0,98.0,13.4,1505.3,325.2,-0.8,1.8,2470.283,13.33,0.045,292.0
2019-12-04T09:25:03,42.805,6.029,-0.036,0.019,-0.022,100.0,106.0,98.0,13.3,1505.3,326.6,-0.7,1.8,2470.263,13.33,0.04,297.8
2019-12-04T09:28:03,42.805,6.029,-0.039,0.018,-0.012,101.0,106.0,99.0,13.4,1505.3,325.6,-0.7,1.9,2470.285,13.33,0.042,294.8
2019-12-04T09:31:03,42.805,6.029,-0.043,0.013,-0.026,100.0,106.0,98.0,13.4,1505.3,327.3,-0.7,1.9,2470.293,13.33,0.044,286.8
2019-12-04T09:34:03,42.805,6.029,-0.039,0.044,-0.035,100.0,106.0,98.0,13.4,1505.3,323.6,-0.7,1.8,2470.322,13.33,0.058,318.4
2019-12-04T09:37:02,42.805,6.029,-0.048,0.024,-0.029,101.0,107.0,99.0,13.4,1505.3,326.7,-0.7,1.9,2470.307,13.33,0.053,296.6
2019-12-04T09:40:03,42.805,6.029,-0.038,0.036,-0.041,99.0,105.0,99.0,13.4,1505.3,326.2,-0.7,1.8,2470.285,13.33,0.052,313.5
2019-12-04T09:43:03,42.805,6.029,-0.053,0.015,-0.036,101.0,106.0,98.0,13.4,1505.3,324.6,-0.7,1.8,2470.246,13.33,0.055,285.8
2019-12-04T09:46:03,42.805,6.029,-0.013,0.011,-0.016,100.0,106.0,98.0,13.4,1505.3,327.3,-0.7,1.8,2470.301,13.33,0.017,310.2
2019-12-04T09:49:03,42.805,6.029,-0.041,-0.006,-0.007,102.0,105.0,98.0,13.4,1505.3,324.2,-0.7,1.8,2470.294,13.33,0.041,261.7
2019-12-04T09:52:02,42.805,6.029,-0.032,0.03,-0.044,101.0,105.0,99.0,13.4,1505.3,327.2,-0.7,1.8,2470.257,13.33,0.043,313.1
2019-12-04T09:55:03,42.805,6.029,-0.036,0.007,-0.028,99.0,106.0,99.0,13.4,1505.3,325.9,-0.8,1.8,2470.321,13.33,0.036,281.0
2019-12-04T09:58:03,42.805,6.029,-0.033,0.018,-0.016,101.0,107.0,97.0,13.4,1505.3,326.7,-0.7,1.8,2470.297,13.33,0.037,298.6
2019-12-04T10:04:02,42.805,6.029,-0.018,0.017,-0.02,100.0,106.0,98.0,13.4,1505.3,324.5,-0.8,1.8,2470.348,13.31,0.024,313.4